This is the latest recevied weather packets stored in our database for station/object OH7GGX-14. If no packets are shown the sender has not sent any weather packets the latest 10 day(s).
| Time | Temp. | Humidity | Pressure | Rain* | Wind** | Luminosity | Snow |
|---|---|---|---|---|---|---|---|
| 1788101813 | 17.78° C | 92% | 1012.7 hPa | 0 mm | - | - | - |
| 1788101213 | 17.78° C | 90% | 1012.7 hPa | 0 mm | - | - | - |
| 1788100613 | 17.78° C | 89% | 1012.8 hPa | 0 mm | - | - | - |
| 1788100014 | 17.78° C | 88% | 1012.8 hPa | 0 mm | - | - | - |
| 1788099414 | 17.78° C | 86% | 1012.9 hPa | 0 mm | - | - | - |
| 1788098814 | 17.78° C | 86% | 1013 hPa | 0 mm | - | - | - |
| 1788098213 | 18.33° C | 85% | 1013.1 hPa | 0 mm | - | - | - |
| 1788097614 | 18.33° C | 85% | 1013.1 hPa | 0 mm | - | - | - |
| 1788097014 | 18.33° C | 84% | 1013 hPa | 0 mm | - | - | - |
| 1788096414 | 18.33° C | 84% | 1012.9 hPa | 0 mm | - | - | - |
| 1788095814 | 18.33° C | 84% | 1013 hPa | 0 mm | - | - | - |
| 1788095214 | 18.33° C | 84% | 1013.1 hPa | 0 mm | - | - | - |
| 1788094614 | 18.33° C | 84% | 1013.3 hPa | 0 mm | - | - | - |
| 1788094014 | 18.33° C | 82% | 1013.3 hPa | 0 mm | - | - | - |
| 1788093414 | 18.33° C | 80% | 1013.4 hPa | 0 mm | - | - | - |
| 1788092814 | 18.89° C | 79% | 1013.3 hPa | 0 mm | - | - | - |
| 1788092214 | 18.89° C | 79% | 1013.2 hPa | 0 mm | - | - | - |
| 1788091614 | 18.89° C | 78% | 1013.3 hPa | 0 mm | - | - | - |
| 1788091014 | 18.89° C | 80% | 1013.4 hPa | 0 mm | - | - | - |
| 1788090414 | 18.89° C | 80% | 1013.3 hPa | 0 mm | - | - | - |
| 1788089814 | 18.89° C | 85% | 1013.4 hPa | 0 mm | - | - | - |
| 1788089214 | 18.89° C | 85% | 1013.5 hPa | 0 mm | - | - | - |
| 1788088614 | 18.89° C | 85% | 1013.5 hPa | 0 mm | - | - | - |
| 1788088014 | 18.89° C | 86% | 1013.5 hPa | 0 mm | - | - | - |
| 1788087414 | 18.89° C | 86% | 1013.6 hPa | 0 mm | - | - | - |
* Rain latest hour (hover to see other rain measurements)
** Current wind speed in m/s (hover to see current wind gust speed)